Regional Weather Roundup
Issued by NWS

Home | Current Version | Previous Version | Text Only | Print | Product List | Glossary Off
Versions: 1 2 3 4 5 6 7 8 9 10 11 12 13 14 15 16 17 18 19 20 21 22 23 24 25 26 27 28 29 30 31 32 33 34 35 36 37 38 39 40 41 42 43 44 45 46 47 48 49 50

000
ASUS45 KSLC 182210
RWRUT

UTAH REGIONAL WEATHER ROUNDUP
NATIONAL WEATHER SERVICE SALT LAKE CITY UT
300 PM MST SAT NOV 18 2017

UTZ001>011-023>025-182300-

NORTHERN UTAH

CITY           SKY/WX    TMP DP  RH WIND       PRES   REMARKS
BRIGHAM CITY   MOSUNNY   40  21  46 S7        30.42F
HILL AFB       SUNNY     39  18  43 CALM      30.39F
LOGAN          MOSUNNY   40  20  44 VRB5      30.40F
OGDEN          SUNNY     40  19  43 SE5       30.39F
SALT LAKE CITY PTSUNNY   43  19  38 S5        30.40F
TOOELE VALLEY  SUNNY     41  23  48 SW3       30.41S
WENDOVER       SUNNY     40  22  48 E6        30.40F
HEBER CITY       N/A     36  19  51 CALM      30.35F
WEST JORDAN    SUNNY     39  20  46 CALM      30.40S

$$

UTZ011>015-024>027-182300-

CENTRAL/NORTHEAST UTAH

CITY           SKY/WX    TMP DP  RH WIND       PRES   REMARKS
PROVO AIRPORT  MOSUNNY   39  23  52 SW6       30.41F WCI  35
MOAB/CANYONLAN SUNNY     47   2  15 N6        30.37S
DELTA          SUNNY     41  14  33 CALM      30.37F
PRICE          SUNNY     39   4  23 SE7       30.35F WCI  34
RICHFIELD      SUNNY     37  21  52 NE5       30.39F WCI  34
ROOSEVELT      SUNNY     41   9  26 CALM      30.38F
VERNAL         SUNNY     40   6  24 CALM      30.37F

$$

UTZ013>016-019>022-027-182300-

SOUTHERN UTAH

CITY           SKY/WX    TMP DP  RH WIND       PRES   REMARKS
BRYCE CANYON   SUNNY     40   6  24 SE12      30.34F WCI  33
CEDAR CITY     SUNNY     42  13  30 CALM      30.32F
MILFORD        SUNNY     42  20  41 N8        30.35F
ST GEORGE      CLEAR     57  11  16 W5        30.29F
HANKSVILLE     SUNNY     45   7  21 N3        30.40F
KANAB          SUNNY     52  12  20 NE13      30.34F
BLANDING         N/A     47   0  14 W5        30.40F

$$

REGIONAL REPORTS     COLORADO/ARIZONA

CITY           SKY/WX    TMP DP  RH WIND       PRES   REMARKS
CRAIG, CO      SUNNY     31  17  56 E6        30.38S WCI  25
GRAND JUNCTION SUNNY     43  15  32 E7        30.38F
RIFLE, CO      SUNNY     38  11  32 CALM      30.38F
MONTROSE, CO   SUNNY     39  15  37 SE6       30.39F WCI  35
CORTEZ, CO     SUNNY     47   8  20 W7        30.32F
COLORADO CITY    N/A     55  10  16 CALM      30.31F
PAGE, AZ       SUNNY     49   9  19 VRB3      30.34F
GRAND CANYON   SUNNY     48   1  14 NE12      30.32S
KINGMAN, AZ    SUNNY     60  14  16 N14       30.22F
FLAGSTAFF, AZ  SUNNY     45  -2  14 NE7       30.31F

$$

REGIONAL REPORTS    NEVADA/IDAHO/WYOMING

CITY           SKY/WX    TMP DP  RH WIND       PRES   REMARKS
LAS VEGAS, NV  SUNNY     60  10  14 NE8       30.26F
ELY, NY        SUNNY     45   9  23 N5        30.29F
ELKO, NV       SUNNY     38  21  50 E6        30.33F WCI  33
POCATELLO, ID  MOSUNNY   40  19  43 VRB3      30.37F
BURLEY, ID     SUNNY     42  19  39 CALM      30.34F
FORT BRIDGER,    N/A     27  18  70 W7        30.37F WCI  19
EVANSTON, WY   CLOUDY    24  19  81 SW6       30.34F WCI  17
ROCK SPRINGS,  CLOUDY    25  15  66 W25       30.31F WCI   9

$$



USA.gov is the U.S. government's official web portal to all federal, state and local government web resources and services.